Regional Weather Roundup
Issued by NWS

Home | Current Version | Previous Version | Graphics & Text | Print | Product List | Glossary On
Versions: 1 2 3 4 5 6 7 8 9 10 11 12 13 14 15 16 17 18 19 20 21 22 23 24 25 26 27 28 29 30 31 32 33 34 35 36 37 38 39 40 41 42 43 44 45 46 47 48 49 50
987
ASUS45 KPSR 230210
RWRAZ

ARIZONA HOURLY REGIONAL WEATHER ROUNDUP
NATIONAL WEATHER SERVICE PHOENIX AZ
700 PM MST MON JAN 22 2018

NOTE: FAIR INDICATES FEW OR NO CLOUDS BELOW 12,000 FEET WITH NO
SIGNIFICANT WEATHER AND/OR OBSTRUCTIONS TO VISIBILITY.

AZZ001>003-036-230300-
NORTHWEST ARIZONA

CITY           SKY/WX    TMP DP  RH WIND       PRES   REMARKS
BULLHEAD CITY  CLEAR     57  21  24 N12       30.20S
KINGMAN        CLEAR    N/A N/A N/A E8        30.22R
$$

AZZ004>008-015-016-018-230300-
NORTH CENTRAL ARIZONA

CITY           SKY/WX    TMP DP  RH WIND       PRES   REMARKS
GRAND CANYON   CLEAR     22  13  68 NE5       30.23R WCI  16
WILLIAMS       CLEAR     25  10  54 S7        30.18S WCI  17
PRESCOTT       CLEAR     31  16  54 CALM      30.18S
FLAGSTAFF      PTCLDY    23   8  52 NE3       30.21R
PAYSON         CLEAR     37  14  38 NE5       30.18R WCI  34
PAGE           CLEAR     35  11  36 SE5       30.24S WCI  31
$$

AZZ009>014-017-230300-
NORTHEAST ARIZONA

CITY           SKY/WX    TMP DP  RH WIND       PRES   REMARKS
WINSLOW        CLEAR     27   3  35 CALM      30.24S
SAINT JOHNS    PTCLDY    28  12  51 CALM      30.22R
WINDOW ROCK    CLEAR     26  11  52 SE3       30.23R
SHOW LOW       CLEAR     23  12  63 E5        30.23S WCI  17
$$

AZZ540-542>544-546-548-230300-
GREATER PHOENIX AREA

CITY           SKY/WX    TMP DP  RH WIND       PRES   REMARKS
PHOENIX        PTCLDY    58  17  20 NW8       30.13S
BUCKEYE        CLEAR     50  19  29 W3        30.16S
GLENDALE       PTCLDY    54  19  26 CALM      30.16S
LUKE AFB       CLEAR     52  22  31 SW5       30.13S
DEER VALLEY    CLEAR     53  18  25 CALM      30.14R
SCOTTSDALE     PTCLDY    54  20  26 W3        30.15S
MESA-FALCON    PTCLDY    54  21  28 MISG      30.14S
MESA-GATEWAY   CLEAR     54  18  24 NW6       30.15S
CHANDLER       CLEAR     54  16  22 CALM      30.14S
$$

AZZ539-553-230300-
SOUTHWEST MARICOPA COUNTY AND PINAL COUNTY

CITY           SKY/WX    TMP DP  RH WIND       PRES   REMARKS
CASA GRANDE    NOT AVBL
GILA BEND      FAIR      54  16  22 CALM      30.15R
$$

AZZ503-504-507>509-230300-
SOUTHEAST ARIZONA

CITY           SKY/WX    TMP DP  RH WIND       PRES   REMARKS
TUCSON         CLEAR     51  16  24 CALM      30.14R
DAVIS-MONTHAN  CLEAR     46  15  28 NW6       30.12R
NOGALES        CLEAR     48   7  18 N5        30.10R
SIERRA VISTA   CLEAR     44   4  19 CALM      30.16R
DOUGLAS        CLEAR     40   8  26 N10       30.14R WCI  33
SAFFORD        PTCLDY    39  12  33 E5        30.17R
$$

AZZ532-230300-
SOUTHWEST ARIZONA

CITY           SKY/WX    TMP DP  RH WIND       PRES   REMARKS
YUMA           CLEAR     58  16  19 N8        30.17S
$$

CAZ041-043-047-048-061-525>527-560>570-230300-
SOUTHERN CALIFORNIA

CITY           SKY/WX    TMP DP  RH WIND       PRES   REMARKS
DOWNTOWN L.A.  CLEAR     60  33  36 CALM      30.15S
L.A. AIRPORT   CLEAR     60  43  53 W13       30.16S
SAN DIEGO      CLEAR     60  42  51 N5        30.18R
BURBANK        CLEAR     61  37  41 SE8       30.15S
ONTARIO        PTCLDY    61  17  18 NW3       30.15S
RIVERSIDE      CLEAR     61  16  17 NE3       30.15S
PALM SPRINGS   CLEAR     62  20  19 SW3       30.20R
EL CENTRO NAS  CLEAR     57  12  17 SW6       30.20S
IMPERIAL       CLEAR     57  18  21 W6        30.18S
BLYTHE         CLEAR     56  21  25 CALM      30.18S
NEEDLES        CLEAR     56  20  24 NW3       30.20S
$$

NVZ020-UTZ003-230300-
SOUTHERN NEVADA-UTAH

CITY           SKY/WX    TMP DP  RH WIND       PRES   REMARKS
LAS VEGAS      PTCLDY    51  22  31 CALM      30.23R
SALT LAKE CITY CLOUDY    34  19  54 SE7       30.28S WCI  28
$$

NMZ009-TXZ055-230300-
NEW MEXICO-WEST TEXAS

CITY           SKY/WX    TMP DP  RH WIND       PRES   REMARKS
ALBUQUERQUE    PTCLDY    36   9  32 N9        30.22R WCI  29
EL PASO        CLOUDY    42   6  22 E6        30.18R
$$


........................KEY........................
SKY/WX - SKY CONDITION/WEATHER
TMP    - TEMPERATURE IN FAHRENHEIT
DP     - DEW POINT IN FAHRENHEIT
RH     - RELATIVE HUMIDITY IN PERCENT
WIND   - DIRECTION AND SPEED IN MILES PER HOUR (MPH)
VRB    - VARIABLE WIND DIRECTION
PRES   - MEAN SEA LEVEL PRESSURE IN INCHES OF MERCURY
         F - FALLING PRESSURE   R - RISING PRESSURE
         S - STEADY PRESSURE
VSB    - VISIBILITY IN MILES
HX     - HEAT INDEX IN FAHRENHEIT
WCI    - WIND CHILL INDEX IN FAHRENHEIT
TC     - TEMPERATURE IN CELSIUS WHICH IS ALSO KNOWN AS
         TEMPERATURE IN CENTIGRADE
AFB    - AIR FORCE BASE
         LUKE AFB IS LUKE AIR FORCE BASE
         DAVIS-MONTHAN IS DAVIS-MONTHAN AIR FORCE BASE
NAS    - NAVAL AIR STATION
         EL CENTRO NAS IS EL CENTRO NAVAL AIR STATION
N/A    - NOT AVAILABLE





USA.gov is the U.S. government's official web portal to all federal, state and local government web resources and services.